FW2156 Weather Reports


time (UTC)temp
F
wind
direction
speed
knots
gust
knots
rain 1hr
in
rain 24hr
in
rain mn
in
humidity
%
barometer
mb
20260906234525 58 151 0.9 0.9 0.00 0.00 0.06 91 1013.9
20260906234026 58 227 0.0 0.9 0.00 0.00 0.06 91 1013.9
20260906233525 58 165 0.0 0.0 0.00 0.00 0.06 92 1013.9
20260906233025 58 138 0.0 0.9 0.00 0.00 0.06 92 1013.9
20260906232524 58 106 0.0 0.9 0.00 0.00 0.06 92 1013.9
20260906232024 58 198 0.0 0.0 0.00 0.00 0.06 92 1013.9
20260906231525 58 146 0.0 0.0 0.00 0.00 0.06 93 1013.9
20260906231025 58 173 0.0 0.9 0.00 0.00 0.06 93 1014.2
20260906230524 58 115 1.7 1.7 0.00 0.00 0.06 93 1014.2
20260906230053 58 140 0.0 0.0 0.00 0.00 0.06 93 1014.2
20260906225524 58 155 0.0 0.9 0.00 0.00 0.06 92 1014.2
20260906225023 58 119 1.7 2.6 0.00 0.00 0.06 92 1014.2
20260906224523 58 180 0.0 0.9 0.00 0.00 0.06 92 1014.2
20260906224022 57 236 0.0 0.9 0.00 0.00 0.06 91 1014.2
20260906223439 57 175 0.0 0.9 0.00 0.00 0.06 91 1014.2
20260906222940 57 85 0.0 0.9 0.00 0.00 0.06 93 1014.2
20260906222437 57 259 0.0 0.0 0.00 0.00 0.06 95 1014.2
20260906221937 57 191 0.0 0.9 0.00 0.00 0.06 95 1014.2
20260906221438 57 111 1.7 1.7 0.00 0.00 0.06 95 1014.2
20260906220936 57 230 0.0 0.0 0.00 0.00 0.06 95 1014.2
20260906220438 57 309 0.0 0.9 0.00 0.00 0.06 95 1014.2
20260906215941 56 111 0.9 0.9 0.00 0.00 0.06 95 1014.6
20260906215436 56 90 1.7 1.7 0.00 0.00 0.06 95 1014.2
20260906214940 56 192 0.0 0.0 0.00 0.00 0.06 95 1014.6
20260906214436 56 142 0.0 0.0 0.00 0.00 0.06 96 1014.6
20260906213935 56 211 0.0 0.0 0.00 0.00 0.06 97 1014.6
20260906213436 56 287 0.9 0.9 0.00 0.00 0.06 97 1014.6
20260906212936 56 189 0.0 0.0 0.00 0.00 0.06 97 1014.6
20260906212436 55 191 0.0 0.0 0.00 0.00 0.06 98 1014.6
20260906211940 55 230 0.0 0.0 0.00 0.00 0.06 98 1014.6
20260906211436 55 183 0.0 0.0 0.00 0.00 0.06 98 1014.6
20260906210935 55 174 0.0 0.0 0.00 0.00 0.06 98 1014.2
20260906210441 55 184 0.0 0.0 0.00 0.00 0.06 99 1014.6
20260906205939 54 112 0.0 0.0 0.00 0.00 0.06 99 1014.6
20260906205438 54 246 0.0 0.9 0.00 0.00 0.06 99 1014.6
20260906204938 54 190 0.0 0.0 0.00 0.00 0.06 99 1014.6
20260906204441 54 154 0.0 0.0 0.00 0.00 0.06 99 1014.6
20260906203936 54 166 0.0 0.0 0.00 0.00 0.06 99 1014.6
20260906203438 54 217 0.0 0.0 0.00 0.00 0.06 99 1014.6
20260906202937 54 182 0.0 0.0 0.00 0.00 0.06 99 1014.6
20260906202442 54 163 0.0 0.0 0.00 0.00 0.06 99 1014.6
20260906201940 54 180 0.0 0.0 0.00 0.00 0.06 99 1014.6
20260906201441 53 216 0.0 0.0 0.00 0.00 0.06 99 1014.6
20260906200943 53 177 0.0 0.0 0.00 0.00 0.06 99 1014.9
20260906200437 53 182 0.0 0.0 0.00 0.00 0.06 99 1014.9
20260906195939 53 204 0.0 0.0 0.00 0.00 0.06 99 1014.9
20260906195445 53 139 0.0 0.0 0.00 0.00 0.06 99 1014.9
20260906194936 53 133 0.0 0.9 0.00 0.00 0.06 99 1014.9
20260906194438 53 187 0.0 0.0 0.00 0.00 0.06 99 1014.9
20260906193941 53 121 0.9 0.9 0.00 0.00 0.06 99 1014.9
20260906193441 53 98 0.0 0.9 0.00 0.00 0.06 99 1014.9
20260906192942 52 179 0.0 0.0 0.00 0.00 0.06 99 1014.9
20260906192438 52 172 0.0 0.0 0.00 0.00 0.06 99 1014.9
20260906191945 52 121 0.9 2.6 0.00 0.00 0.06 99 1014.9
20260906191440 52 191 0.0 0.0 0.00 0.00 0.06 99 1014.9
20260906190937 52 116 0.9 0.9 0.00 0.00 0.06 99 1015.2
20260906190441 51 167 0.0 0.9 0.00 0.00 0.06 99 1015.2
20260906185911 51 135 0.0 0.0 0.00 0.00 0.06 99 1015.2
20260906185420 51 113 1.7 1.7 0.00 0.00 0.06 99 1015.2
20260906184912 51 108 2.6 2.6 0.00 0.00 0.06 99 1015.2
20260906184414 51 167 1.7 1.7 0.00 0.00 0.06 99 1015.2
20260906183912 51 126 0.9 1.7 0.00 0.00 0.06 99 1015.2
20260906183413 51 160 0.0 0.0 0.00 0.00 0.06 99 1015.2
20260906182914 51 112 1.7 2.6 0.00 0.00 0.05 99 1015.2
20260906182412 51 136 1.7 1.7 0.00 0.00 0.05 99 1015.2
20260906181912 51 128 0.9 0.9 0.00 0.00 0.05 99 1015.2
20260906181413 50 127 1.7 1.7 0.00 0.00 0.05 99 1015.2
20260906180911 50 170 0.0 0.9 0.00 0.00 0.05 99 1015.2
20260906180411 50 157 0.0 0.0 0.00 0.00 0.05 99 1015.2
20260906175912 50 185 0.0 0.0 0.00 0.00 0.05 99 1015.2
20260906175411 50 107 0.0 0.9 0.00 0.00 0.05 99 1015.6
20260906174913 50 23 0.0 0.0 0.00 0.00 0.05 99 1015.6
20260906174412 50 12 0.9 0.9 0.00 0.00 0.05 99 1015.6
20260906173912 49 152 0.0 0.0 0.00 0.00 0.05 99 1015.6
20260906173413 49 214 0.0 0.0 0.00 0.00 0.05 99 1015.6
20260906172911 49 180 0.0 0.0 0.00 0.00 0.05 99 1015.6
20260906172414 49 194 0.0 0.0 0.00 0.00 0.05 99 1015.6
20260906171914 49 177 0.0 0.0 0.00 0.00 0.04 99 1015.9
20260906171413 49 177 0.0 0.0 0.00 0.00 0.04 99 1015.6
20260906170914 49 229 0.0 0.0 0.00 0.00 0.03 99 1015.9
20260906170415 49 221 0.0 0.0 0.00 0.00 0.03 99 1015.9
20260906165912 49 250 0.0 0.0 0.00 0.00 0.03 99 1015.9
20260906165414 49 215 0.0 0.0 0.00 0.00 0.03 99 1015.6
20260906164839 48 224 0.0 0.0 0.00 0.00 0.03 99 1015.9
20260906164315 48 6 0.0 0.0 0.00 0.00 0.03 99 1015.9
20260906163813 48 187 0.0 0.0 0.00 0.00 0.03 99 1015.9
20260906163212 48 156 0.0 0.0 0.00 0.00 0.03 99 1016.3
20260906162714 48 178 0.0 0.0 0.00 0.00 0.03 99 1016.3
20260906162219 48 153 0.0 0.0 0.00 0.00 0.03 99 1016.3
20260906161710 48 255 0.0 0.0 0.00 0.00 0.03 99 1016.3
20260906161155 48 250 0.0 0.0 0.00 0.00 0.03 99 1016.3
20260906160544 48 213 0.0 0.0 0.00 0.00 0.03 99 1016.3
20260906160046 48 180 0.0 0.0 0.00 0.00 0.03 99 1016.3
20260906155442 48 155 0.0 0.0 0.00 0.00 0.03 99 1016.3
20260906154950 48 158 0.0 0.0 0.00 0.00 0.03 99 1016.3
20260906154353 48 105 0.9 0.9 0.00 0.00 0.03 99 1016.3
20260906153800 48 115 0.0 0.9 0.00 0.00 0.03 99 1015.9
20260906153211 48 229 0.0 0.0 0.00 0.00 0.03 99 1016.3
20260906152640 48 172 0.0 0.0 0.00 0.00 0.03 99 1016.3
20260906152144 48 169 0.0 0.0 0.00 0.00 0.03 99 1015.9
20260906151555 48 169 0.0 0.0 0.00 0.00 0.03 99 1016.3
20260906151040 48 223 0.0 0.9 0.00 0.00 0.03 99 1015.9
20260906150539 48 230 0.0 0.0 0.00 0.00 0.03 99 1016.3
20260906145951 48 221 0.0 0.0 0.00 0.00 0.03 99 1016.3
20260906145441 48 241 0.0 0.0 0.00 0.00 0.03 99 1016.3
20260906144927 48 210 0.0 0.0 0.00 0.00 0.03 99 1016.3
20260906144349 48 161 0.0 0.0 0.00 0.00 0.03 99 1016.3
20260906143840 48 169 0.0 0.0 0.00 0.00 0.03 99 1016.3
20260906143338 48 177 0.0 0.0 0.00 0.00 0.03 99 1016.3
20260906142803 48 224 0.0 0.0 0.00 0.00 0.03 99 1015.9
20260906142240 48 242 0.0 0.0 0.00 0.00 0.03 99 1016.3
20260906141740 47 227 0.0 0.0 0.00 0.00 0.03 99 1016.3
20260906141212 47 276 0.9 0.9 0.00 0.00 0.03 99 1016.3
20260906140635 47 251 0.0 0.9 0.00 0.00 0.03 99 1016.3
20260906135535 47 238 0.0 0.0 0.00 0.00 0.03 99 1016.3
20260906135014 47 233 0.0 0.0 0.00 0.00 0.03 99 1016.3
20260906134454 47 233 0.0 0.0 0.00 0.00 0.03 99 1015.9
20260906133934 47 229 0.0 0.0 0.00 0.00 0.03 99 1016.3
20260906133419 47 233 0.0 0.0 0.00 0.00 0.03 99 1016.3
20260906132913 47 229 0.0 0.0 0.00 0.00 0.03 99 1016.3
20260906132352 47 229 0.0 0.0 0.00 0.00 0.03 99 1016.3
20260906131844 47 251 0.0 0.0 0.00 0.00 0.03 99 1016.3
20260906131336 47 240 0.0 0.0 0.00 0.00 0.03 99 1016.3
20260906130822 47 242 0.0 0.9 0.00 0.00 0.03 99 1016.6
20260906130313 47 254 0.9 0.9 0.00 0.00 0.03 99 1016.3
20260906125750 47 278 0.0 0.9 0.00 0.00 0.03 99 1016.6
20260906125239 47 222 0.0 0.0 0.00 0.00 0.03 99 1016.6
20260906124730 47 188 0.0 0.0 0.00 0.00 0.03 99 1016.6
20260906124224 47 156 0.0 0.0 0.00 0.00 0.03 99 1016.6
20260906123714 47 175 0.0 0.0 0.00 0.00 0.02 99 1016.6
20260906123215 47 210 0.0 0.0 0.00 0.00 0.02 99 1016.6
20260906122714 47 219 0.0 0.0 0.00 0.00 0.02 99 1016.6
20260906122215 47 245 0.9 0.9 0.00 0.00 0.01 99 1016.6
20260906121714 47 248 0.0 0.0 0.00 0.00 0.01 99 1016.9
20260906121212 47 170 0.0 0.0 0.00 0.00 0.01 99 1016.9
20260906120738 47 175 0.0 0.0 0.00 0.00 0.01 99 1016.9
20260906120214 47 131 0.0 0.0 0.00 0.00 0.01 99 1016.9
20260906115737 47 140 0.0 0.0 0.00 0.00 0.00 99 1017.3
20260906115239 47 171 0.0 0.0 0.00 0.00 0.00 99 1017.3
20260906114738 47 213 0.0 0.0 0.00 0.00 0.00 99 1017.3
20260906114301 47 227 0.0 0.0 0.00 0.00 0.00 99 1017.6
20260906113803 47 235 0.0 0.0 0.00 0.00 0.00 99 1017.6
20260906113301 47 228 0.0 0.0 0.00 0.00 0.00 99 1017.6
20260906112801 47 232 0.0 0.9 0.00 0.00 0.00 99 1017.3
20260906112306 47 228 0.0 0.0 0.00 0.00 0.00 99 1017.6
20260906111801 48 260 0.0 0.9 0.00 0.00 0.00 99 1017.6
20260906111301 48 252 0.0 0.0 0.00 0.00 0.00 99 1017.6
20260906110801 48 237 0.9 0.9 0.00 0.00 0.00 99 1017.6
20260906110300 48 246 0.0 0.9 0.00 0.00 0.00 99 1017.6
20260906105800 48 233 0.0 0.0 0.00 0.00 0.00 99 1017.6
20260906105301 48 260 0.0 0.9 0.00 0.00 0.00 99 1017.6
20260906104759 48 220 0.0 0.0 0.00 0.00 0.00 99 1017.6
20260906104259 48 230 0.0 0.0 0.00 0.00 0.00 99 1017.9
20260906103759 48 203 0.0 0.0 0.00 0.00 0.00 99 1017.6
20260906103302 48 194 0.0 0.0 0.00 0.00 0.00 99 1017.6
20260906102759 48 220 0.0 0.0 0.00 0.00 0.00 99 1017.6
20260906102259 48 232 0.0 0.0 0.00 0.00 0.00 99 1017.3
20260906101758 48 208 0.0 0.0 0.00 0.00 0.00 99 1017.3
20260906101304 48 255 0.0 0.0 0.00 0.00 0.00 99 1017.3
20260906100759 48 228 0.0 0.0 0.00 0.00 0.00 99 1017.6
20260906100258 48 222 0.0 0.0 0.00 0.00 0.00 99 1017.6
20260906095757 48 221 0.0 0.0 0.00 0.00 0.00 99 1017.6
20260906095257 48 167 0.0 0.0 0.00 0.00 0.00 99 1017.3
20260906094756 48 170 0.0 0.0 0.00 0.00 0.00 99 1017.6
20260906094255 48 208 0.0 0.0 0.00 0.00 0.00 99 1017.3
20260906093755 48 223 0.0 0.0 0.00 0.00 0.00 99 1017.6
20260906093254 48 223 0.0 0.0 0.00 0.00 0.00 99 1017.6
20260906092754 48 228 0.0 0.0 0.00 0.00 0.00 99 1017.9
20260906092253 48 247 0.0 0.0 0.00 0.00 0.00 99 1017.6
20260906091754 48 247 0.0 0.9 0.00 0.00 0.00 99 1017.6
20260906091253 48 255 0.0 0.0 0.00 0.00 0.00 99 1017.6
20260906090752 48 226 0.0 0.0 0.00 0.00 0.00 99 1017.6
20260906090253 48 227 0.0 0.0 0.00 0.00 0.00 99 1017.9
20260906085754 49 215 0.0 0.0 0.00 0.00 0.00 99 1017.9
20260906085252 49 199 0.0 0.0 0.00 0.00 0.00 99 1017.9
20260906084751 49 199 0.0 0.0 0.00 0.00 0.00 99 1017.9
20260906084249 49 199 0.0 0.0 0.00 0.00 0.00 99 1017.9
20260906083750 49 188 0.0 0.0 0.00 0.00 0.00 99 1017.9
20260906083250 49 179 0.0 0.0 0.00 0.00 0.00 99 1018.3
20260906082749 49 180 0.0 0.0 0.00 0.00 0.00 99 1018.3
20260906082248 49 180 0.0 0.0 0.00 0.00 0.00 99 1018.3
20260906081747 49 180 0.0 0.0 0.00 0.00 0.00 99 1018.6
20260906081247 49 172 0.0 0.0 0.00 0.00 0.00 99 1018.6
20260906080747 49 151 0.0 0.0 0.00 0.00 0.00 99 1018.6
20260906080250 49 203 0.0 0.0 0.00 0.00 0.00 99 1018.6
20260906075748 49 201 0.0 0.0 0.00 0.00 0.00 99 1018.6
20260906075248 49 197 0.0 0.0 0.00 0.00 0.00 99 1018.3
20260906074747 49 217 0.0 0.0 0.00 0.00 0.00 99 1018.3
20260906074247 49 227 0.0 0.0 0.00 0.00 0.00 99 1018.3
20260906073747 49 205 0.0 0.0 0.00 0.00 0.00 99 1018.3
20260906073245 49 245 0.0 0.9 0.00 0.00 0.00 99 1018.3
20260906072746 49 215 0.0 0.0 0.00 0.00 0.00 99 1018.6
20260906072245 49 177 0.0 0.0 0.00 0.00 0.00 99 1018.3
20260906071744 49 177 0.0 0.0 0.00 0.00 0.00 99 1018.6
20260906071245 49 177 0.0 0.0 0.00 0.00 0.00 99 1018.6
20260906070743 49 177 0.0 0.0 0.00 0.00 0.00 99 1019.0
20260906070245 49 215 0.0 0.0 0.00 0.00 0.00 99 1018.6
20260906065744 49 198 0.0 0.0 0.00 0.00 0.00 99 1018.6
20260906065243 49 172 0.0 0.0 0.00 0.00 0.00 99 1018.6
20260906064743 49 171 0.0 0.0 0.00 0.00 0.00 99 1018.6
20260906064242 49 170 0.0 0.0 0.00 0.00 0.00 99 1018.6
20260906063742 49 200 0.0 0.0 0.00 0.00 0.00 99 1019.0
20260906063241 49 200 0.0 0.0 0.00 0.00 0.00 99 1019.0
20260906062742 49 194 0.0 0.0 0.00 0.00 0.00 99 1018.6
20260906062241 49 190 0.0 0.0 0.00 0.00 0.00 99 1019.0
20260906061741 49 184 0.0 0.0 0.00 0.00 0.00 99 1018.6
20260906061240 49 174 0.0 0.0 0.00 0.00 0.00 99 1018.6
20260906060742 49 164 0.0 0.0 0.00 0.00 0.00 99 1018.6
20260906060242 49 178 0.0 0.0 0.00 0.00 0.00 99 1018.6
20260906055740 49 179 0.0 0.0 0.00 0.00 0.25 99 1018.6
20260906055241 49 182 0.0 0.0 0.00 0.00 0.25 99 1018.6
20260906054741 49 217 0.0 0.0 0.00 0.00 0.25 99 1018.6
20260906054241 49 221 0.0 0.0 0.00 0.00 0.25 99 1018.6
20260906053739 49 226 0.0 0.0 0.00 0.00 0.25 99 1018.6
20260906053240 49 244 0.0 0.0 0.00 0.00 0.25 99 1018.6
20260906052739 49 231 0.9 0.9 0.00 0.00 0.25 99 1018.6
20260906052240 49 218 0.0 0.0 0.00 0.00 0.25 99 1019.0
20260906051740 49 237 0.9 0.9 0.00 0.00 0.25 99 1018.6
20260906051238 49 230 0.0 0.0 0.00 0.00 0.25 99 1018.6
20260906050737 49 244 0.9 0.9 0.00 0.00 0.25 99 1018.6
20260906050238 49 259 0.9 0.9 0.00 0.00 0.25 99 1018.6
20260906045737 49 274 0.9 1.7 0.00 0.00 0.25 99 1019.0
20260906045236 49 279 0.0 0.9 0.00 0.00 0.25 99 1019.0
20260906044736 49 240 0.0 0.0 0.00 0.00 0.25 99 1019.0
20260906044236 49 226 0.0 0.0 0.00 0.00 0.25 99 1019.0
20260906043735 49 225 0.0 0.0 0.00 0.00 0.25 99 1019.0
20260906043236 49 214 0.0 0.0 0.00 0.00 0.25 99 1019.0
20260906042735 49 244 0.0 0.9 0.00 0.00 0.25 99 1019.0
20260906042235 49 224 0.0 0.0 0.00 0.00 0.25 99 1019.0
20260906041734 49 226 0.0 0.0 0.00 0.00 0.25 99 1019.0
20260906041233 49 221 0.0 0.0 0.00 0.00 0.25 99 1019.0
20260906040735 49 232 0.0 0.0 0.00 0.00 0.25 99 1018.6
20260906040234 49 217 0.0 0.0 0.00 0.00 0.25 99 1019.0
20260906035733 49 220 0.0 0.0 0.00 0.00 0.25 99 1019.0
20260906035233 48 223 0.0 0.0 0.00 0.00 0.25 99 1018.6
20260906034732 48 212 0.0 0.0 0.00 0.00 0.25 99 1018.6
20260906034233 48 220 0.0 0.0 0.00 0.00 0.25 99 1018.6
20260906033733 48 212 0.0 0.0 0.00 0.00 0.25 99 1018.6
20260906033231 48 216 0.0 0.0 0.00 0.00 0.25 99 1018.3
20260906032732 48 204 0.0 0.0 0.00 0.00 0.25 99 1018.3
20260906032232 48 124 0.0 0.0 0.00 0.00 0.25 99 1018.3
20260906031732 48 169 0.0 0.0 0.00 0.00 0.25 99 1018.3
20260906031233 49 179 0.0 0.0 0.00 0.00 0.25 99 1018.3
20260906030730 49 181 0.0 0.0 0.00 0.00 0.25 99 1018.3
20260906030231 49 221 0.0 0.0 0.00 0.00 0.25 99 1018.3
20260906025730 49 233 0.0 0.0 0.00 0.00 0.25 99 1017.9
20260906025231 49 240 0.0 0.9 0.00 0.00 0.25 99 1017.9
20260906024732 49 190 0.0 0.0 0.00 0.00 0.25 99 1017.9
20260906024230 49 234 0.0 0.0 0.00 0.00 0.25 99 1017.9
20260906023730 49 219 0.0 0.0 0.00 0.00 0.25 99 1017.9
20260906023229 49 185 0.0 0.0 0.00 0.00 0.25 99 1017.9
20260906022730 49 193 0.0 0.0 0.00 0.00 0.25 99 1017.9
20260906022229 49 278 0.9 1.7 0.00 0.00 0.25 99 1017.9
20260906021728 49 192 0.0 0.0 0.00 0.00 0.25 99 1017.9
20260906021229 49 218 0.0 0.0 0.00 0.00 0.25 99 1018.3
20260906020729 49 253 0.9 0.9 0.00 0.00 0.25 99 1018.3
20260906020228 49 245 0.0 0.9 0.00 0.00 0.25 99 1018.3
20260906015729 49 227 0.0 0.0 0.00 0.00 0.25 99 1018.3
20260906015230 49 280 0.0 0.9 0.00 0.00 0.24 99 1018.3
20260906014729 49 227 0.0 0.0 0.00 0.00 0.24 99 1018.3
20260906014229 49 253 0.9 0.9 0.00 0.00 0.24 99 1018.6
20260906013726 49 236 0.0 0.9 0.00 0.00 0.24 99 1018.6
20260906013227 49 254 0.0 0.0 0.00 0.00 0.24 99 1018.3
20260906012727 49 209 0.0 0.0 0.00 0.00 0.24 99 1018.3
20260906012228 49 200 0.0 0.0 0.00 0.00 0.24 99 1018.3
20260906011727 49 208 0.0 0.0 0.00 0.00 0.24 99 1018.3
20260906011228 49 252 0.0 0.0 0.00 0.00 0.24 99 1018.3
20260906010725 49 315 0.0 0.9 0.00 0.00 0.24 99 1018.3
20260906010226 49 35 0.0 0.9 0.00 0.00 0.24 99 1017.9
20260906005725 49 32 0.0 0.0 0.00 0.00 0.24 99 1018.3
20260906005224 49 82 0.0 0.9 0.00 0.00 0.24 99 1017.9
20260906004731 49 191 0.0 0.0 0.00 0.00 0.24 99 1018.3
20260906004225 49 338 0.9 1.7 0.00 0.00 0.24 99 1017.9
20260906003724 50 120 0.0 0.9 0.00 0.00 0.24 99 1017.9
20260906003225 50 142 0.0 0.0 0.00 0.00 0.23 99 1017.9
20260906002724 50 105 0.0 0.9 0.00 0.00 0.23 99 1018.3
20260906002224 50 208 0.0 0.0 0.00 0.00 0.23 99 1018.3
20260906001723 49 136 0.0 0.9 0.00 0.00 0.23 99 1017.9
20260906001224 49 194 0.0 0.0 0.00 0.00 0.23 99 1017.9
20260906000724 49 178 0.0 0.0 0.00 0.00 0.23 99 1017.9
20260906000223 49 66 0.0 0.9 0.00 0.00 0.22 99 1017.9
20260905235723 49 199 0.0 0.0 0.00 0.00 0.22 99 1017.9
20260905235223 49 212 0.0 0.0 0.00 0.00 0.22 99 1018.3
20260905234723 49 124 0.0 0.0 0.00 0.00 0.22 99 1018.3